When you browse on this site, cookies collect data to enhance your experience and personalize the content and advertising you see.
Visit our Privacy Policy to learn more. By continuing to use the site, you agree to this use of cookies and data.
  • In Lithuania
  • List of Countries
  • For 7 days
  • Water Temperature
  • Weather Map
  • Weather Widgets
  • user-avatar
    Login

    Hourly Weather Mariental

    Today, 30 March, Monday

    Time Temperature Precipitation Wind Pressure Humidity
    00:00 +26°C° 0 mm 6 mps 667 mmHg 43%
    01:00 +26°C° 0 mm 5 mps 667 mmHg 45%
    02:00 +26°C° 0 mm 4 mps 666 mmHg 42%
    03:00 +26°C° 0 mm 4 mps 666 mmHg 38%
    04:00 +26°C° 0 mm 3 mps 666 mmHg 35%
    05:00 +26°C° 0 mm 3 mps 666 mmHg 34%
    06:00 +26°C° 0 mm 2 mps 667 mmHg 34%
    07:00 +26°C° 0 mm 2 mps 667 mmHg 34%
    08:00 +26°C° 0.2 mm 3 mps 667 mmHg 42%
    09:00 +25°C° 0.2 mm 5 mps 667 mmHg 51%
    10:00 +24°C° 0.2 mm 6 mps 668 mmHg 59%
    11:00 +23°C° 0.6 mm 6 mps 667 mmHg 63%
    12:00 +23°C° 0.6 mm 6 mps 667 mmHg 67%
    13:00 +22°C° 0.6 mm 6 mps 667 mmHg 71%
    14:00 +22°C° 0.1 mm 5 mps 666 mmHg 69%
    15:00 +23°C° 0.1 mm 4 mps 666 mmHg 67%
    16:00 +24°C° 0.1 mm 3 mps 666 mmHg 66%
    17:00 +22°C° 0.5 mm 4 mps 666 mmHg 71%
    18:00 +21°C° 0.5 mm 4 mps 666 mmHg 76%
    19:00 +21°C° 0.5 mm 5 mps 666 mmHg 82%
    20:00 +21°C° 0 mm 5 mps 666 mmHg 82%
    21:00 +21°C° 0 mm 5 mps 667 mmHg 82%
    22:00 +21°C° 0 mm 5 mps 667 mmHg 82%
    23:00 +21°C° 0.2 mm 5 mps 667 mmHg 81%

    Tomorrow, 31 March, Tuesday

    Time Temperature Precipitation Wind Pressure Humidity
    00:00 +21°C° 0.2 mm 5 mps 666 mmHg 80%
    01:00 +21°C° 0.2 mm 5 mps 666 mmHg 79%
    02:00 +21°C° 0.1 mm 5 mps 666 mmHg 80%
    03:00 +20°C° 0.1 mm 4 mps 665 mmHg 81%
    04:00 +20°C° 0.1 mm 4 mps 665 mmHg 82%
    05:00 +20°C° 0 mm 4 mps 666 mmHg 82%
    06:00 +21°C° 0 mm 4 mps 666 mmHg 81%
    07:00 +21°C° 0 mm 4 mps 666 mmHg 80%
    08:00 +23°C° 0.1 mm 4 mps 667 mmHg 72%
    09:00 +26°C° 0.1 mm 4 mps 667 mmHg 63%
    10:00 +27°C° 0.1 mm 3 mps 668 mmHg 55%
    11:00 +28°C° 0.5 mm 3 mps 667 mmHg 50%
    12:00 +29°C° 0.5 mm 2 mps 667 mmHg 45%
    13:00 +30°C° 0.5 mm 2 mps 666 mmHg 40%
    14:00 +30°C° 0.1 mm 2 mps 666 mmHg 39%
    15:00 +31°C° 0.1 mm 3 mps 666 mmHg 38%
    16:00 +32°C° 0.1 mm 4 mps 666 mmHg 38%
    17:00 +30°C° 0 mm 4 mps 666 mmHg 44%
    18:00 +28°C° 0 mm 4 mps 666 mmHg 50%
    19:00 +27°C° 0 mm 5 mps 667 mmHg 57%
    20:00 +26°C° 0.1 mm 5 mps 667 mmHg 55%
    21:00 +26°C° 0.1 mm 4 mps 667 mmHg 53%
    22:00 +25°C° 0.1 mm 4 mps 668 mmHg 51%
    23:00 +23°C° 0 mm 5 mps 667 mmHg 46%

    Day after tomorrow, 1 April, Wednesday

    Time Temperature Precipitation Wind Pressure Humidity
    00:00 +22°C° 0 mm 5 mps 667 mmHg 42%
    01:00 +21°C° 0 mm 5 mps 667 mmHg 37%
    02:00 +21°C° 0 mm 5 mps 667 mmHg 40%
    03:00 +20°C° 0 mm 4 mps 667 mmHg 43%
    04:00 +20°C° 0 mm 3 mps 667 mmHg 47%
    05:00 +20°C° 0 mm 3 mps 667 mmHg 49%
    06:00 +21°C° 0 mm 3 mps 667 mmHg 50%
    07:00 +21°C° 0 mm 3 mps 668 mmHg 52%
    08:00 +24°C° 0 mm 3 mps 668 mmHg 51%
    09:00 +26°C° 0 mm 3 mps 669 mmHg 50%
    10:00 +29°C° 0 mm 4 mps 670 mmHg 49%
    11:00 +30°C° 0 mm 4 mps 669 mmHg 46%
    12:00 +32°C° 0 mm 4 mps 669 mmHg 43%
    13:00 +33°C° 0 mm 4 mps 668 mmHg 39%
    14:00 +33°C° 0 mm 4 mps 668 mmHg 40%
    15:00 +33°C° 0 mm 4 mps 667 mmHg 40%
    16:00 +32°C° 0 mm 5 mps 667 mmHg 41%
    17:00 +29°C° 1.1 mm 6 mps 667 mmHg 48%
    18:00 +28°C° 1.1 mm 7 mps 667 mmHg 56%
    19:00 +26°C° 1.1 mm 7 mps 667 mmHg 64%
    20:00 +24°C° 1.3 mm 7 mps 668 mmHg 64%
    21:00 +24°C° 1.3 mm 6 mps 668 mmHg 63%
    22:00 +25°C° 1.3 mm 5 mps 668 mmHg 63%
    23:00 +23°C° 0.3 mm 4 mps 668 mmHg 66%

    2 April, Thursday

    Time Temperature Precipitation Wind Pressure Humidity
    00:00 +24°C° 0.3 mm 3 mps 668 mmHg 69%
    01:00 +23°C° 0.3 mm 2 mps 668 mmHg 72%
    02:00 +23°C° 0.1 mm 2 mps 668 mmHg 73%
    03:00 +23°C° 0.1 mm 2 mps 668 mmHg 75%
    04:00 +21°C° 0.1 mm 2 mps 668 mmHg 76%
    05:00 +22°C° 0 mm 3 mps 668 mmHg 75%
    06:00 +22°C° 0 mm 3 mps 668 mmHg 74%
    07:00 +22°C° 0 mm 4 mps 668 mmHg 73%
    08:00 +23°C° 0 mm 4 mps 669 mmHg 67%
    09:00 +26°C° 0 mm 4 mps 669 mmHg 61%
    10:00 +27°C° 0 mm 4 mps 669 mmHg 54%
    11:00 +28°C° 0 mm 4 mps 669 mmHg 52%
    12:00 +29°C° 0 mm 4 mps 668 mmHg 50%
    13:00 +29°C° 0 mm 4 mps 668 mmHg 48%
    14:00 +29°C° 0 mm 4 mps 668 mmHg 47%
    15:00 +29°C° 0 mm 4 mps 667 mmHg 46%
    16:00 +30°C° 0 mm 4 mps 667 mmHg 46%
    17:00 +29°C° 0.1 mm 4 mps 667 mmHg 48%
    18:00 +28°C° 0.1 mm 5 mps 668 mmHg 50%
    19:00 +27°C° 0.1 mm 6 mps 668 mmHg 52%
    20:00 +26°C° 0.9 mm 5 mps 668 mmHg 57%
    21:00 +25°C° 0.9 mm 4 mps 668 mmHg 62%
    22:00 +24°C° 0.9 mm 3 mps 669 mmHg 67%
    23:00 +24°C° 0 mm 3 mps 669 mmHg 67%

    3 April, Friday

    Time Temperature Precipitation Wind Pressure Humidity
    00:00 +22°C° 0 mm 3 mps 668 mmHg 68%
    01:00 +22°C° 0 mm 3 mps 668 mmHg 68%
    02:00 +22°C° 0 mm 3 mps 668 mmHg 68%
    03:00 +22°C° 0 mm 4 mps 668 mmHg 67%
    04:00 +21°C° 0 mm 5 mps 667 mmHg 67%
    05:00 +21°C° 0 mm 5 mps 668 mmHg 67%
    06:00 +21°C° 0 mm 5 mps 668 mmHg 67%
    07:00 +22°C° 0 mm 5 mps 668 mmHg 68%
    08:00 +23°C° 0 mm 5 mps 668 mmHg 61%
    09:00 +26°C° 0 mm 6 mps 669 mmHg 55%
    10:00 +28°C° 0 mm 6 mps 669 mmHg 49%
    11:00 +30°C° 0 mm 6 mps 669 mmHg 44%
    12:00 +32°C° 0 mm 5 mps 669 mmHg 39%
    13:00 +33°C° 0 mm 5 mps 668 mmHg 34%
    14:00 +33°C° 0 mm 4 mps 668 mmHg 33%
    15:00 +33°C° 0 mm 4 mps 668 mmHg 31%
    16:00 +33°C° 0 mm 3 mps 667 mmHg 30%
    17:00 +30°C° 0.5 mm 4 mps 667 mmHg 38%
    18:00 +27°C° 0.5 mm 5 mps 667 mmHg 45%
    19:00 +24°C° 0.5 mm 7 mps 667 mmHg 53%
    20:00 +23°C° 0.4 mm 7 mps 668 mmHg 59%
    21:00 +22°C° 0.4 mm 7 mps 668 mmHg 65%
    22:00 +22°C° 0.4 mm 7 mps 669 mmHg 71%
    23:00 +22°C° 0.3 mm 6 mps 668 mmHg 70%

    4 April, Saturday

    Time Temperature Precipitation Wind Pressure Humidity
    00:00 +22°C° 0.3 mm 6 mps 668 mmHg 70%
    01:00 +22°C° 0.3 mm 5 mps 668 mmHg 70%
    02:00 +22°C° 0.1 mm 5 mps 668 mmHg 71%
    03:00 +22°C° 0.1 mm 6 mps 668 mmHg 72%
    04:00 +21°C° 0.1 mm 6 mps 667 mmHg 73%
    05:00 +21°C° 0.3 mm 6 mps 668 mmHg 74%
    06:00 +21°C° 0.3 mm 7 mps 668 mmHg 74%
    07:00 +21°C° 0.3 mm 8 mps 668 mmHg 75%
    08:00 +23°C° 0 mm 8 mps 668 mmHg 68%
    09:00 +26°C° 0 mm 8 mps 668 mmHg 61%
    10:00 +27°C° 0 mm 8 mps 669 mmHg 54%
    11:00 +29°C° 0 mm 7 mps 668 mmHg 47%
    12:00 +30°C° 0 mm 6 mps 668 mmHg 40%
    13:00 +33°C° 0 mm 5 mps 668 mmHg 33%
    14:00 +33°C° 0 mm 5 mps 668 mmHg 31%
    15:00 +33°C° 0 mm 4 mps 667 mmHg 30%
    16:00 +33°C° 0 mm 4 mps 667 mmHg 28%
    17:00 +29°C° 0.5 mm 4 mps 667 mmHg 38%
    18:00 +26°C° 0.5 mm 4 mps 667 mmHg 48%
    19:00 +23°C° 0.5 mm 4 mps 667 mmHg 58%
    20:00 +23°C° 0 mm 4 mps 667 mmHg 60%
    21:00 +22°C° 0 mm 4 mps 668 mmHg 63%
    22:00 +22°C° 0 mm 3 mps 668 mmHg 65%
    23:00 +22°C° 0 mm 3 mps 668 mmHg 67%
    Show more